Location: Krasnoyarskiy Pitomnik
(51.1333°N, 71.6167°E)
Time: 09:48:39
(UTC+00:00)

Cosmos 2237 - Pass Details

Date: 22 October 2021
Orbit: 845 x 856 km, 70.8° (Epoch: 06 December)

Event Time Altitude Azimuth Distance (km) Brightness Sun altitude
Rises 14:26:05 0° 202° (SSW) 3,408 7.5 -22.5°
Reaches altitude 10° 14:28:32 10° 200° (SSW) 2,477 6.7 -22.9°
Maximum altitude 14:34:13 75° 116° (ESE) 890 4.1 -23.8°
Enters shadow 14:36:55 33° 38° (NE) 1,420 5.1 -24.2°
